EW9451 Weather Reports


Display with metric or nautical units.
time (UTC)temp
F
wind
direction
speed
MPH
gust
MPH
rain 1hr
in
rain 24hr
in
rain mn
in
humidity
%
barometer
mb
20260902192059 73 104 3.0 12.0 0.00 0.00 0.00 74 1011.5
20260902191559 73 117 3.0 11.0 0.00 0.00 0.00 73 1011.6
20260902191058 73 162 4.0 10.0 0.00 0.00 0.00 76 1011.6
20260902190559 72 141 4.0 10.0 0.00 0.00 0.00 75 1011.5
20260902190058 72 171 3.0 9.0 0.00 0.00 0.00 78 1011.6
20260902185557 72 133 3.0 14.0 0.00 0.00 0.00 75 1011.7
20260902185057 72 130 6.0 14.0 0.00 0.00 0.00 74 1011.8
20260902184557 72 148 3.0 13.0 0.00 0.00 0.00 75 1011.9
20260902184056 72 135 3.0 12.0 0.00 0.00 0.00 74 1011.8
20260902183557 72 167 3.0 15.0 0.00 0.00 0.00 75 1011.9
20260902183056 73 145 4.0 12.0 0.00 0.00 0.00 72 1012.1
20260902182555 73 161 1.0 9.0 0.00 0.00 0.00 75 1011.9
20260902182057 73 141 2.0 11.0 0.00 0.00 0.00 75 1011.9
20260902181557 73 138 4.0 11.0 0.00 0.00 0.00 76 1011.7
20260902181054 73 298 3.0 16.0 0.00 0.00 0.00 73 1011.7
20260902180554 73 94 2.0 16.0 0.00 0.00 0.00 72 1011.8
20260902180056 74 80 3.0 12.0 0.00 0.00 0.00 72 1011.8
20260902175554 74 145 4.0 13.0 0.00 0.00 0.00 70 1012.1
20260902175054 75 142 5.0 13.0 0.00 0.00 0.00 72 1012.0
20260902174556 75 91 3.0 11.0 0.00 0.00 0.00 74 1011.8
20260902174052 75 178 3.0 11.0 0.00 0.00 0.00 76 1011.9
20260902173548 74 163 3.0 11.0 0.00 0.00 0.00 76 1012.0
20260902173048 74 128 3.0 10.0 0.00 0.00 0.00 75 1012.1
20260902172548 74 237 3.0 9.0 0.00 0.00 0.00 73 1012.1
20260902172049 73 98 2.0 12.0 0.00 0.00 0.00 73 1012.1
20260902171547 73 162 3.0 11.0 0.00 0.00 0.00 76 1012.1
20260902171046 73 164 4.0 11.0 0.00 0.00 0.00 72 1012.2
20260902170546 73 146 4.0 12.0 0.00 0.00 0.00 74 1012.1
20260902170045 73 140 5.0 11.0 0.00 0.00 0.00 73 1012.2
20260902165546 73 61 4.0 11.0 0.00 0.00 0.00 74 1012.1
20260902165045 73 119 2.0 12.0 0.00 0.00 0.00 79 1012.2
20260902164548 72 149 1.0 10.0 0.00 0.00 0.00 79 1012.3
20260902164042 72 270 4.0 10.0 0.00 0.00 0.00 76 1012.3
20260902163541 72 171 2.0 9.0 0.00 0.00 0.00 76 1012.2
20260902163041 72 153 3.0 9.0 0.00 0.00 0.00 79 1012.4
20260902162541 72 79 2.0 8.0 0.00 0.00 0.00 78 1012.3
20260902162040 71 119 1.0 7.0 0.00 0.00 0.00 79 1012.4
20260902161538 71 102 2.0 9.0 0.00 0.00 0.00 81 1012.6
20260902161040 70 162 3.0 9.0 0.00 0.00 0.00 78 1012.8
20260902160538 70 143 2.0 12.0 0.00 0.00 0.00 80 1012.8
20260902160037 70 175 4.0 12.0 0.00 0.00 0.00 76 1012.9
20260902155537 70 136 4.0 11.0 0.00 0.00 0.00 77 1013.0
20260902155037 70 150 2.0 11.0 0.00 0.00 0.00 77 1013.0
20260902154536 70 163 2.0 10.0 0.00 0.00 0.00 78 1013.0
20260902154036 70 113 3.0 10.0 0.00 0.00 0.00 79 1013.0
20260902153536 70 103 3.0 9.0 0.00 0.00 0.00 78 1013.1
20260902153034 70 128 4.0 9.0 0.00 0.00 0.00 79 1013.0
20260902152533 70 101 1.0 12.0 0.00 0.00 0.00 81 1012.8
20260902152034 70 155 2.0 7.0 0.00 0.00 0.00 81 1012.8
20260902151532 69 142 3.0 13.0 0.00 0.00 0.00 80 1012.7
20260902151031 69 133 5.0 13.0 0.00 0.00 0.00 78 1012.9
20260902150532 69 21 3.0 11.0 0.00 0.00 0.00 81 1012.9
20260902150029 69 130 2.0 12.0 0.00 0.00 0.00 79 1013.0
20260902145529 68 167 2.0 7.0 0.00 0.00 0.00 80 1013.0
20260902145027 68 70 1.0 6.0 0.00 0.00 0.00 82 1013.1
20260902144529 67 78 2.0 10.0 0.00 0.00 0.00 81 1013.1
20260902144025 67 126 1.0 10.0 0.00 0.00 0.00 82 1013.3
20260902143525 67 310 2.0 8.0 0.00 0.00 0.00 82 1013.5
20260902143025 67 96 2.0 8.0 0.00 0.00 0.00 83 1013.5
20260902142526 67 113 1.0 9.0 0.00 0.00 0.00 81 1013.4
20260902142025 67 191 2.0 9.0 0.00 0.00 0.00 82 1013.5
20260902141531 67 109 2.0 8.0 0.00 0.00 0.00 81 1013.4
20260902141021 67 63 3.0 10.0 0.00 0.00 0.00 81 1013.2
20260902140520 67 175 2.0 10.0 0.00 0.00 0.00 82 1013.0
20260902140019 67 95 2.0 10.0 0.00 0.00 0.00 83 1012.9
20260902135518 67 109 1.0 7.0 0.00 0.00 0.00 83 1012.8
20260902135018 66 47 1.0 8.0 0.00 0.00 0.00 84 1012.8
20260902134517 66 107 2.0 8.0 0.00 0.00 0.00 83 1012.9
20260902134016 66 111 2.0 7.0 0.00 0.00 0.00 83 1012.9
20260902133519 66 58 1.0 7.0 0.00 0.00 0.00 86 1013.0
20260902133020 66 149 2.0 6.0 0.00 0.00 0.00 85 1012.8
20260902132516 65 108 1.0 6.0 0.00 0.00 0.00 83 1012.6
20260902132014 65 104 2.0 5.0 0.00 0.00 0.00 83 1012.6
20260902131514 66 111 2.0 6.0 0.00 0.00 0.00 83 1012.6
20260902131014 66 110 2.0 6.0 0.00 0.00 0.00 83 1012.7
20260902130515 66 115 1.0 6.0 0.00 0.00 0.00 83 1012.6
20260902130023 66 89 1.0 8.0 0.00 0.00 0.00 83 1012.8
20260902125515 66 130 1.0 8.0 0.00 0.00 0.00 84 1012.8
20260902125013 65 126 3.0 9.0 0.00 0.00 0.00 82 1012.6
20260902124513 65 92 3.0 9.0 0.00 0.00 0.00 83 1012.6
20260902124113 65 138 3.0 9.0 0.00 0.00 0.00 83 1012.6
20260902123512 65 119 3.0 7.0 0.00 0.00 0.00 83 1012.5
20260902123012 65 138 2.0 8.0 0.00 0.00 0.00 84 1012.5
20260902122512 65 130 3.0 10.0 0.00 0.00 0.00 84 1012.6
20260902122011 64 80 2.0 10.0 0.00 0.00 0.00 85 1012.6
20260902121512 64 95 1.0 6.0 0.00 0.00 0.00 86 1012.6
20260902121014 64 112 1.0 6.0 0.00 0.00 0.00 87 1012.7
20260902120511 64 179 2.0 8.0 0.00 0.00 0.00 87 1012.8
20260902120011 64 186 2.0 8.0 0.00 0.00 0.00 87 1012.8
20260902115513 64 146 2.0 8.0 0.00 0.00 0.00 87 1012.9
20260902115010 64 155 1.0 7.0 0.00 0.00 0.00 87 1012.9
20260902114510 63 141 1.0 7.0 0.00 0.00 0.00 87 1012.8
20260902114009 63 111 2.0 9.0 0.00 0.00 0.00 87 1012.9
20260902113509 63 126 2.0 9.0 0.00 0.00 0.00 87 1012.8
20260902113009 63 120 0.0 5.0 0.00 0.00 0.00 86 1012.8
20260902112509 63 104 1.0 7.0 0.00 0.00 0.00 86 1012.8
20260902112009 63 113 1.0 7.0 0.00 0.00 0.00 86 1012.8
20260902111508 63 127 1.0 7.0 0.00 0.00 0.00 86 1012.9
20260902111008 63 125 1.0 4.0 0.00 0.00 0.00 88 1013.1
20260902110508 63 138 1.0 4.0 0.00 0.00 0.00 88 1013.2
20260902110014 63 134 0.0 4.0 0.00 0.00 0.00 89 1013.0
20260902105507 63 109 1.0 6.0 0.00 0.00 0.00 88 1012.9
20260902105011 63 143 1.0 7.0 0.00 0.00 0.00 88 1013.1
20260902104507 63 149 0.0 7.0 0.00 0.00 0.00 88 1012.9
20260902104008 63 124 1.0 7.0 0.00 0.00 0.00 87 1012.8
20260902103504 63 135 1.0 7.0 0.00 0.00 0.00 86 1012.6
20260902103004 63 98 0.0 4.0 0.00 0.00 0.00 87 1012.5
20260902102504 63 232 1.0 6.0 0.00 0.00 0.00 87 1012.7
20260902102004 63 192 1.0 6.0 0.00 0.00 0.00 87 1012.6
20260902101503 63 131 1.0 10.0 0.00 0.00 0.00 86 1012.6
20260902101003 63 92 3.0 10.0 0.00 0.00 0.00 86 1012.5
20260902100503 63 136 0.0 4.0 0.00 0.00 0.00 87 1012.5
20260902100003 63 157 1.0 5.0 0.00 0.00 0.00 87 1012.5
20260902095503 63 111 0.0 5.0 0.00 0.00 0.00 87 1012.3
20260902095002 63 105 1.0 8.0 0.00 0.00 0.00 87 1012.4
20260902094502 63 79 0.0 8.0 0.00 0.00 0.00 87 1012.3
20260902094001 63 119 1.0 7.0 0.00 0.00 0.00 87 1012.5
20260902093600 63 172 1.0 7.0 0.00 0.00 0.00 88 1012.5
20260902093100 63 138 2.0 10.0 0.00 0.00 0.00 87 1012.4
20260902093001 63 142 2.0 10.0 0.00 0.00 0.00 87 1012.4
20260902092601 63 107 0.0 10.0 0.00 0.00 0.00 87 1012.4
20260902092100 64 146 0.0 8.0 0.00 0.00 0.00 87 1012.4
20260902091610 64 108 2.0 8.0 0.00 0.00 0.00 86 1012.3
20260902091059 64 74 1.0 6.0 0.00 0.00 0.00 86 1012.4
20260902090601 64 139 1.0 7.0 0.00 0.00 0.00 86 1012.3
20260902090105 64 94 2.0 8.0 0.00 0.00 0.00 85 1012.3
20260902085557 64 120 2.0 7.0 0.00 0.00 0.00 85 1012.3
20260902085057 64 97 2.0 4.0 0.00 0.00 0.00 85 1012.3
20260902084605 64 94 1.0 5.0 0.00 0.00 0.00 85 1012.4
20260902084056 64 118 2.0 5.0 0.00 0.00 0.00 85 1012.4
20260902083554 64 25 2.0 9.0 0.00 0.00 0.00 85 1012.4
20260902083112 64 128 3.0 9.0 0.00 0.00 0.00 85 1012.4
20260902082554 64 119 2.0 7.0 0.00 0.00 0.00 85 1012.5
20260902082156 64 123 1.0 7.0 0.00 0.00 0.00 85 1012.5
20260902081554 65 124 2.0 9.0 0.00 0.00 0.00 85 1012.5
20260902081053 65 108 1.0 4.0 0.00 0.00 0.00 85 1012.4
20260902080556 65 136 1.0 11.0 0.00 0.00 0.00 85 1012.3
20260902080056 65 107 4.0 11.0 0.00 0.00 0.00 85 1012.2
20260902075556 65 88 2.0 11.0 0.00 0.00 0.00 85 1012.5
20260902075052 65 106 3.0 8.0 0.00 0.00 0.00 85 1012.4
20260902074553 64 113 2.0 9.0 0.00 0.00 0.00 85 1012.4
20260902074052 64 96 3.0 9.0 0.00 0.00 0.00 86 1012.5
20260902073551 64 180 2.0 7.0 0.00 0.00 0.00 85 1012.5
20260902073055 64 122 2.0 5.0 0.00 0.00 0.00 86 1012.5
20260902072550 64 123 1.0 6.0 0.00 0.00 0.00 86 1012.5
20260902072050 64 118 2.0 7.0 0.00 0.00 0.00 86 1012.5
20260902071550 64 130 2.0 7.0 0.00 0.00 0.00 86 1012.5
20260902071053 64 95 1.0 9.0 0.00 0.00 0.00 87 1012.6
20260902070551 64 73 2.0 9.0 0.00 0.00 0.00 87 1012.7
20260902070050 64 101 2.0 6.0 0.00 0.00 0.00 88 1012.6
20260902065550 64 84 1.0 3.0 0.00 0.00 0.00 88 1012.6
20260902065050 63 175 0.0 2.0 0.00 0.00 0.00 88 1012.6
20260902064552 64 126 0.0 2.0 0.00 0.00 0.00 88 1012.6
20260902064050 64 78 0.0 2.0 0.00 0.00 0.00 88 1012.6
20260902063549 64 105 0.0 3.0 0.00 0.00 0.00 88 1012.6
20260902063048 64 188 0.0 3.0 0.00 0.00 0.00 87 1012.6
20260902062548 64 122 0.0 4.0 0.00 0.00 0.00 87 1012.5
20260902062047 64 111 1.0 4.0 0.00 0.00 0.00 87 1012.4
20260902061553 64 108 1.0 3.0 0.00 0.00 0.00 86 1012.4
20260902061049 64 107 1.0 2.0 0.00 0.00 0.00 86 1012.3
20260902060549 64 107 1.0 3.0 0.00 0.00 0.00 85 1012.3
20260902060050 64 117 1.0 6.0 0.00 0.00 0.00 86 1012.3
20260902055546 64 109 1.0 6.0 0.00 0.00 0.00 85 1012.2
20260902055045 64 122 1.0 5.0 0.00 0.00 0.00 85 1012.4
20260902054550 64 117 1.0 5.0 0.00 0.00 0.00 85 1012.3
20260902054045 64 119 1.0 6.0 0.00 0.00 0.00 85 1012.3
20260902053545 65 92 0.0 2.0 0.00 0.00 0.00 85 1012.2
20260902053050 65 65 0.0 3.0 0.00 0.00 0.00 84 1012.3
20260902052546 65 144 1.0 4.0 0.00 0.00 0.00 84 1012.3
20260902052045 65 117 1.0 4.0 0.00 0.00 0.00 83 1012.3
20260902051545 65 126 1.0 5.0 0.00 0.00 0.00 83 1012.3
20260902051044 66 107 1.0 9.0 0.00 0.00 0.00 83 1012.4
20260902050546 66 108 3.0 11.0 0.00 0.00 0.00 82 1012.4
20260902050052 65 55 3.0 11.0 0.00 0.00 0.00 82 1012.3
20260902045544 66 173 1.0 7.0 0.00 0.00 0.00 82 1012.3
20260902045047 65 101 2.0 8.0 0.00 0.00 0.00 82 1012.4
20260902044547 65 98 0.0 8.0 0.00 0.00 0.00 82 1012.5
20260902044040 65 161 1.0 9.0 0.00 0.00 0.00 83 1012.5
20260902043540 65 124 1.0 10.0 0.00 0.00 0.00 83 1012.3
20260902043047 64 78 4.0 10.0 0.00 0.00 0.00 84 1012.3
20260902042540 64 92 3.0 8.0 0.00 0.00 0.00 84 1012.3
20260902042036 64 53 1.0 7.0 0.00 0.00 0.00 85 1012.2
20260902041535 64 355 0.0 10.0 0.00 0.00 0.00 85 1012.1
20260902041034 64 186 0.0 7.0 0.00 0.00 0.00 85 1012.1
20260902040534 64 155 1.0 8.0 0.00 0.00 0.00 86 1011.9
20260902040033 64 135 2.0 8.0 0.00 0.00 0.00 85 1011.8
20260902035532 64 169 1.0 8.0 0.00 0.00 0.00 85 1011.8
20260902035033 64 103 2.0 9.0 0.00 0.00 0.00 84 1011.5
20260902034534 64 88 2.0 9.0 0.00 0.00 0.00 84 1011.5
20260902034031 64 100 1.0 9.0 0.00 0.00 0.00 85 1011.7
20260902033532 64 76 2.0 10.0 0.00 0.00 0.00 85 1011.5
20260902033034 64 132 2.0 11.0 0.00 0.00 0.00 84 1011.7
20260902032533 64 133 2.0 6.0 0.00 0.00 0.00 85 1011.8
20260902032030 64 115 0.0 3.0 0.00 0.00 0.00 86 1011.7
20260902031537 63 291 0.0 3.0 0.00 0.00 0.00 86 1011.7
20260902031033 63 11 0.0 0.0 0.00 0.00 0.00 86 1011.6
20260902030530 64 11 0.0 0.0 0.00 0.00 0.00 86 1011.5
20260902030032 64 11 0.0 4.0 0.00 0.00 0.00 86 1011.4
20260902025531 64 154 0.0 4.0 0.00 0.00 0.00 86 1011.4
20260902025030 64 86 0.0 3.0 0.00 0.00 0.00 86 1011.3
20260902024529 64 182 0.0 1.0 0.00 0.00 0.00 86 1011.3
20260902024029 64 182 0.0 1.0 0.00 0.00 0.00 86 1011.3
20260902023532 64 155 0.0 1.0 0.00 0.00 0.00 86 1011.4
20260902023034 64 101 0.0 0.0 0.00 0.00 0.00 85 1011.4
20260902022529 64 101 0.0 2.0 0.00 0.00 0.00 86 1011.5
20260902022033 64 101 0.0 2.0 0.00 0.00 0.00 86 1011.5
20260902021529 65 118 0.0 3.0 0.00 0.00 0.00 85 1011.5
20260902021028 65 166 0.0 3.0 0.00 0.00 0.00 85 1011.5
20260902020529 65 107 1.0 3.0 0.00 0.00 0.00 84 1011.5
20260902020030 64 150 0.0 2.0 0.00 0.00 0.00 83 1011.6
20260902015528 64 130 0.0 2.0 0.00 0.00 0.00 84 1011.7
20260902015028 65 127 0.0 2.0 0.00 0.00 0.00 84 1011.7
20260902014531 65 190 0.0 0.0 0.00 0.00 0.00 84 1011.6
20260902014029 65 190 0.0 1.0 0.00 0.00 0.00 85 1011.5
20260902013526 65 190 0.0 1.0 0.00 0.00 0.00 84 1011.4
20260902013026 65 190 0.0 0.0 0.00 0.00 0.00 85 1011.5
20260902012530 65 190 0.0 0.0 0.00 0.00 0.00 85 1011.6
20260902012028 65 190 0.0 0.0 0.00 0.00 0.00 86 1011.6
20260902011526 66 190 0.0 0.0 0.00 0.00 0.00 86 1011.7
20260902011027 66 190 0.0 0.0 0.00 0.00 0.00 86 1011.6
20260902010525 66 190 0.0 1.0 0.00 0.00 0.00 86 1011.5
20260902010027 66 190 0.0 2.0 0.00 0.00 0.00 87 1011.5
20260902005527 66 190 0.0 2.0 0.00 0.00 0.00 86 1011.5
20260902005026 66 213 0.0 0.0 0.00 0.00 0.00 85 1011.4
20260902004529 66 213 0.0 1.0 0.00 0.00 0.00 85 1011.4
20260902004032 66 213 0.0 1.0 0.00 0.00 0.00 85 1011.4
20260902003526 67 210 0.0 1.0 0.00 0.00 0.00 85 1011.3
20260902003028 67 210 0.0 1.0 0.00 0.00 0.00 84 1011.3
20260902002525 67 210 0.0 1.0 0.00 0.00 0.00 84 1011.3
20260902002024 67 134 0.0 2.0 0.00 0.00 0.00 85 1011.3
20260902001524 68 134 0.0 2.0 0.00 0.00 0.00 85 1011.1
20260902001023 68 147 0.0 1.0 0.00 0.00 0.00 85 1011.0
20260902000525 68 147 0.0 0.0 0.00 0.00 0.00 84 1011.2
20260902000024 68 147 0.0 1.0 0.00 0.00 0.00 83 1011.2
20260901235525 68 147 0.0 2.0 0.00 0.00 0.00 82 1011.4
20260901235024 68 147 0.0 1.0 0.00 0.00 0.00 83 1011.5
20260901234523 68 147 0.0 1.0 0.00 0.00 0.00 82 1011.5
20260901234023 68 147 0.0 0.0 0.00 0.00 0.00 83 1011.3
20260901233528 69 147 0.0 0.0 0.00 0.00 0.00 83 1011.3
20260901233025 69 147 0.0 1.0 0.00 0.00 0.00 83 1011.2
20260901232524 69 147 0.0 1.0 0.00 0.00 0.00 82 1011.3
20260901232022 69 147 0.0 0.0 0.00 0.00 0.00 82 1011.3
20260901231522 69 147 0.0 0.0 0.00 0.00 0.00 82 1011.3
20260901231022 69 147 0.0 0.0 0.00 0.00 0.00 81 1011.3
20260901230522 70 147 0.0 1.0 0.00 0.00 0.00 81 1011.2
20260901230022 70 139 0.0 2.0 0.00 0.00 0.00 80 1011.1
20260901225521 70 277 0.0 2.0 0.00 0.00 0.00 80 1011.0
20260901225021 70 260 0.0 1.0 0.00 0.00 0.00 79 1011.0
20260901224526 70 155 0.0 1.0 0.00 0.00 0.00 78 1010.9
20260901224021 70 138 0.0 2.0 0.00 0.00 0.00 77 1010.9
20260901223521 71 253 0.0 2.0 0.00 0.00 0.00 79 1010.9
20260901223021 71 252 0.0 2.0 0.00 0.00 0.00 78 1010.7
20260901222520 71 200 0.0 5.0 0.00 0.00 0.00 77 1010.7
20260901222020 71 126 1.0 5.0 0.00 0.00 0.00 76 1010.7
20260901221553 71 289 0.0 3.0 0.00 0.00 0.00 77 1010.7
20260901221020 72 108 0.0 2.0 0.00 0.00 0.00 79 1010.7
20260901220519 72 181 0.0 2.0 0.00 0.00 0.00 78 1010.7
20260901220031 72 23 0.0 1.0 0.00 0.00 0.00 77 1010.6
20260901215520 72 23 0.0 3.0 0.00 0.00 0.00 78 1010.6
20260901215022 72 23 0.0 4.0 0.00 0.00 0.00 76 1010.5
20260901214520 72 144 1.0 4.0 0.00 0.00 0.00 76 1010.5
20260901214019 72 165 0.0 1.0 0.00 0.00 0.00 79 1010.5
20260901213519 72 214 0.0 2.0 0.00 0.00 0.00 80 1010.6
20260901213023 72 237 0.0 2.0 0.00 0.00 0.00 79 1010.6
20260901212518 72 151 0.0 2.0 0.00 0.00 0.00 79 1010.5
20260901212018 72 142 0.0 2.0 0.00 0.00 0.00 77 1010.6
20260901211520 72 137 0.0 2.0 0.00 0.00 0.00 78 1010.6
20260901211018 72 129 0.0 2.0 0.00 0.00 0.00 77 1010.6
20260901210517 72 175 0.0 1.0 0.00 0.00 0.00 76 1010.6
20260901210024 73 223 0.0 2.0 0.00 0.00 0.00 75 1010.7
20260901205517 73 226 0.0 3.0 0.00 0.00 0.00 73 1010.7
20260901205021 73 179 1.0 3.0 0.00 0.00 0.00 73 1010.5
20260901204520 74 178 0.0 0.0 0.00 0.00 0.00 73 1010.4
20260901204016 74 178 0.0 0.0 0.00 0.00 0.00 75 1010.3
20260901203516 74 178 0.0 1.0 0.00 0.00 0.00 74 1010.2
20260901203016 74 178 0.0 3.0 0.00 0.00 0.00 72 1010.2
20260901202516 75 167 0.0 3.0 0.00 0.00 0.00 73 1010.1
20260901202016 75 159 0.0 3.0 0.00 0.00 0.00 73 1010.1
20260901201514 75 169 0.0 3.0 0.00 0.00 0.00 72 1010.1
20260901201014 75 209 0.0 2.0 0.00 0.00 0.00 72 1010.1
20260901200514 75 128 0.0 1.0 0.00 0.00 0.00 73 1010.0
20260901200033 75 137 0.0 3.0 0.00 0.00 0.00 71 1010.0
20260901195513 75 130 0.0 3.0 0.00 0.00 0.00 73 1010.0
20260901195012 75 117 0.0 3.0 0.00 0.00 0.00 70 1010.2
20260901194510 75 175 0.0 1.0 0.00 0.00 0.00 70 1010.2
20260901194013 75 198 0.0 3.0 0.00 0.00 0.00 70 1010.3
20260901193509 76 275 1.0 3.0 0.00 0.00 0.00 70 1010.3
20260901193008 76 254 0.0 2.0 0.00 0.00 0.00 69 1010.3
20260901192508 77 198 0.0 1.0 0.00 0.00 0.00 66 1010.3